Snowfall_Accumulation
0.0 0.0 0.0 0.0 0.0 0.0 0.0 0.0 0.0 0.0 0.0 0.0 0.0 0.0 0.0 0.0 0.0 0.0 0.0 0.0 0.0 0.0 0.0 0.0 0.0 0.0 0.0 0.0 0.0 0.0 0.0 0.0 0.0 0.0 0.0 0.0 0.0 0.0 0.0 0.0 0.0 0.0 0.0 0.0 0.0 0.0 0.0 0.0 0.0
0.0 0.0 0.0 0.0 0.0 0.8 0.0 0.0 0.0 0.0 0.0 0.0 0.0 0.0 0.0 0.0 0.0 0.0 0.0 0.0 0.0 0.0 0.0 0.0 0.0 0.0 0.0 0.0 0.0 0.0 0.0 0.0 0.0 0.0 0.0 0.0 0.0 0.0 0.0 0.0 0.0 0.0 0.0 0.0 0.0 0.0 0.0 0.0 0.0
0.0 0.0 0.0 0.0 0.0 0.4 0.0 0.0 0.0 0.0 0.0 0.0 0.0 0.0 0.0 0.0 0.0 0.0 0.0 0.0 0.0 0.0 0.0 0.0 0.0 0.0 0.0 0.0 0.0 0.0 0.0 0.0 0.0 0.0 0.0 0.0 0.0 0.0 0.0 0.0 0.0 0.0 0.0 0.0 0.0 0.0 0.0 0.0 0.0
0.0 0.0 0.0 0.0 0.2 0.0 0.0 0.0 0.0 0.0 0.0 0.0 0.0 0.0 0.0 0.0 0.0 0.0 0.0 0.0 0.0 0.0 0.0 0.0 0.0 0.0 0.0 0.0 0.0 0.0 0.0 0.0 0.0 0.0 0.0 0.0 0.0 0.0 0.0 0.0 0.0 0.0 0.0 0.0 0.0 0.0 0.0 0.0 0.0
0.0 0.0 0.0 0.4 0.1 0.0 0.0 0.0 0.0 0.0 0.0 0.0 0.0 0.0 0.0 0.0 0.0 0.0 0.0 0.0 0.0 0.0 0.0 0.0 0.0 0.0 0.0 0.0 0.0 0.0 0.0 0.0 0.0 0.0 0.0 0.0 0.0 0.0 0.0 0.0 0.0 0.0 0.0 0.0 0.0 0.0 0.0 0.0 0.0
0.0 0.0 0.6 1.7 0.2 0.0 0.0 0.0 0.0 0.0 0.0 0.0 0.0 0.0 0.0 0.0 0.0 0.0 0.0 0.0 0.0 0.0 0.0 0.0 0.0 0.0 0.0 0.0 0.0 0.0 0.0 0.0 0.0 0.0 0.0 0.0 0.0 0.0 0.0 0.0 0.0 0.0 0.0 0.0 0.0 0.0 0.0 0.0 0.0
0.0 0.1 1.3 0.8 0.3 0.0 0.0 0.0 0.0 0.0 0.0 0.0 0.0 0.0 0.0 0.0 0.0 0.0 0.0 0.0 0.0 0.0 0.0 0.0 0.0 0.0 0.0 0.0 0.0 0.0 0.0 0.0 0.0 0.0 0.0 0.0 0.0 0.0 0.0 0.0 0.0 0.0 0.0 0.0 0.0 0.0 0.0 0.0 0.0
0.0 0.1 1.1 0.7 0.4 0.1 0.0 0.0 0.0 0.0 0.0 0.0 0.0 0.0 0.0 0.0 0.0 0.0 0.0 0.0 0.0 0.0 0.0 0.0 0.0 0.0 0.0 0.0 0.0 0.0 0.0 0.0 0.0 0.0 0.0 0.0 0.0 0.0 0.0 0.0 0.0 0.0 0.0 0.0 0.0 0.0 0.0 0.0 0.0
0.0 0.5 2.8 0.9 0.4 0.1 0.1 0.0 0.0 0.0 0.0 0.1 0.0 0.0 0.0 0.0 0.0 0.0 0.0 0.0 0.0 0.0 0.0 0.0 0.0 0.0 0.0 0.0 0.0 0.0 0.0 0.0 0.0 0.0 0.0 0.0 0.0 0.0 0.0 0.0 0.0 0.0 0.0 0.0 0.0 0.0 0.0 0.0 0.0
0.1 2.2 1.0 0.1 0.0 0.1 0.1 0.1 0.0 0.0 0.0 0.1 0.0 0.0 0.0 0.0 0.0 0.0 0.0 0.0 0.0 0.0 0.0 0.0 0.0 0.0 0.0 0.0 0.0 0.0 0.0 0.0 0.0 0.0 0.0 0.0 0.0 0.0 0.0 0.0 0.0 0.0 0.0 0.0 0.0 0.0 0.0 0.0 0.0
0.4 0.6 0.1 0.2 0.1 0.1 0.1 0.2 0.1 0.0 0.1 0.2 0.2 0.0 0.0 0.0 0.0 0.0 0.0 0.0 0.0 0.0 0.0 0.0 0.0 0.0 0.0 0.0 0.0 0.0 0.0 0.0 0.0 0.0 0.0 0.0 0.0 0.0 0.0 0.0 0.0 0.0 0.0 0.0 0.0 0.0 0.0 0.0 0.0
0.4 0.4 0.1 0.2 0.2 0.1 0.1 0.1 0.2 0.1 0.1 0.2 0.1 0.0 0.0 0.0 0.0 0.0 0.0 0.0 0.0 0.0 0.0 0.0 0.0 0.0 0.0 0.0 0.0 0.0 0.0 0.0 0.0 0.0 0.0 0.0 0.0 0.0 0.0 0.0 0.0 0.0 0.0 0.0 0.0 0.0 0.0 0.0 0.0
0.5 0.3 0.1 0.1 0.2 0.1 0.0 0.1 0.1 0.1 0.0 0.0 0.1 0.1 0.0 0.0 0.0 0.0 0.0 0.0 0.0 0.0 0.0 0.0 0.0 0.0 0.0 0.0 0.0 0.0 0.0 0.0 0.0 0.0 0.0 0.0 0.0 0.0 0.0 0.0 0.0 0.0 0.0 0.0 0.0 0.0 0.0 0.0 0.0
0.6 0.5 0.1 0.1 0.3 0.2 0.3 0.1 0.1 0.1 0.0 0.0 0.1 0.1 0.1 0.1 0.2 0.0 0.0 0.0 0.0 0.0 0.0 0.0 0.0 0.0 0.0 0.0 0.0 0.0 0.0 0.0 0.0 0.0 0.0 0.0 0.0 0.0 0.0 0.0 0.0 0.0 0.0 0.0 0.0 0.0 0.0 0.0 0.0
0.3 0.5 0.4 0.3 0.3 0.3 0.2 0.2 0.2 0.1 0.1 0.1 0.1 0.1 0.2 0.2 0.1 0.1 0.1 0.1 0.1 0.0 0.0 0.0 0.1 0.0 0.0 0.0 0.0 0.0 0.0 0.0 0.0 0.1 0.0 0.0 0.0 0.0 0.0 0.0 0.0 0.0 0.0 0.0 0.0 0.0 0.0 0.0 0.0
0.6 1.3 2.8 1.2 0.3 0.2 1.1 2.8 0.3 0.2 0.1 0.3 0.2 0.2 0.2 0.1 0.2 0.2 0.1 0.1 0.1 0.1 0.0 0.0 0.1 0.1 0.0 0.0 0.0 0.0 0.0 0.0 0.0 0.1 0.0 0.0 0.0 0.0 0.0 0.0 0.0 0.0 0.0 0.0 0.0 0.0 0.0 0.0 0.0
6.1 7.3 4.2 2.0 0.6 0.5 1.5 2.8 0.4 0.2 0.3 0.4 0.3 0.3 0.3 0.2 0.2 0.2 0.1 0.1 0.1 0.1 0.1 0.1 0.0 0.2 0.1 0.1 0.0 0.0 0.0 0.0 0.0 0.0 0.0 0.0 0.0 0.0 0.0 0.0 0.0 0.0 0.0 0.0 0.0 0.1 0.0 0.1 0.0
8.0 5.7 3.6 2.9 1.4 1.0 2.1 1.3 0.5 0.4 0.5 0.4 0.3 0.5 0.5 0.3 0.3 0.3 0.2 0.1 0.1 0.1 0.1 0.2 0.1 0.1 0.2 0.2 0.0 0.1 0.0 0.0 0.0 0.0 0.1 0.0 0.0 0.0 0.0 0.0 0.1 0.0 0.0 0.0 0.0 0.0 0.1 0.0 0.0
4.0 4.5 3.5 2.2 1.2 1.5 2.2 1.9 0.8 0.7 0.7 0.7 0.5 0.5 0.6 0.4 0.3 0.3 0.2 0.1 0.1 0.1 0.1 0.1 0.1 0.1 0.1 0.2 0.0 0.0 0.0 0.0 0.1 0.1 0.2 0.0 0.1 0.0 0.0 0.1 0.1 0.0 0.0 0.0 0.0 0.0 0.1 0.1 0.0
4.9 5.7 3.9 2.3 1.0 2.0 3.2 2.3 1.4 1.0 1.3 1.2 1.1 1.1 0.8 0.4 0.3 0.2 0.3 0.2 0.1 0.2 0.2 0.1 0.1 0.2 0.2 0.2 0.0 0.1 0.1 0.0 0.1 0.1 0.1 0.0 0.1 0.0 0.0 0.0 0.1 0.2 0.0 0.0 0.0 0.1 0.1 0.1 0.1
5.6 5.3 3.7 3.7 2.5 1.5 3.0 5.0 2.5 1.5 1.0 1.2 1.3 1.2 1.1 0.8 0.6 0.4 0.3 0.3 0.2 0.2 0.2 0.3 0.2 0.2 0.3 0.2 0.2 0.1 0.2 0.0 0.1 0.1 0.1 0.0 0.1 0.1 0.1 0.1 0.3 0.2 0.1 0.1 0.1 0.1 0.2 0.1 0.1
7.1 2.4 2.1 3.3 5.1 7.2 5.6 11.0 5.0 2.7 1.7 1.5 2.0 2.3 2.1 1.3 0.9 0.6 0.4 0.3 0.3 0.2 0.2 0.3 0.3 0.3 0.2 0.2 0.2 0.1 0.2 0.1 0.2 0.1 0.1 0.0 0.1 0.3 0.2 0.1 0.3 0.2 0.1 0.1 0.1 0.2 0.3 0.2 0.3
4.1 1.5 2.1 3.2 7.0 9.3 5.3 9.5 7.3 2.6 3.8 3.1 2.9 3.1 3.3 2.3 1.2 0.9 0.6 0.5 0.4 0.3 0.2 0.2 0.3 0.3 0.3 0.2 0.4 0.4 0.4 0.2 0.1 0.2 0.2 0.1 0.2 0.1 0.1 0.1 0.3 0.3 0.0 0.1 0.1 0.1 0.2 0.2 0.2
2.4 2.5 3.0 4.7 11.1 18.7 7.7 8.5 8.6 7.3 7.2 4.4 2.9 3.1 3.0 2.9 1.8 1.4 1.0 0.7 0.4 0.5 0.4 0.3 0.4 0.4 0.4 0.3 0.3 0.4 0.5 0.3 0.3 0.2 0.3 0.1 0.1 0.1 0.0 0.1 0.2 0.3 0.1 0.1 0.1 0.2 0.2 0.2 0.1
5.1 17.9 27.8 28.9 27.6 16.5 4.5 6.8 9.6 7.1 5.2 4.9 4.5 4.1 3.6 3.2 3.1 2.1 1.8 1.4 1.0 0.9 0.9 0.9 0.8 0.8 0.6 0.4 0.4 0.5 0.6 0.7 0.7 0.5 0.6 0.2 0.2 0.2 0.2 0.1 0.1 0.3 0.1 0.1 0.2 0.2 0.3 0.3 0.3
7.4 13.4 21.3 19.7 14.0 8.0 5.2 8.0 9.1 5.0 4.6 4.1 4.2 4.0 3.5 3.7 3.3 3.5 2.4 2.0 1.2 1.2 1.0 0.9 0.8 1.0 1.1 0.7 0.5 0.4 0.6 0.8 0.6 0.6 0.6 0.5 0.2 0.2 0.2 0.3 0.1 0.1 0.2 0.1 0.2 0.3 0.3 0.4 0.4
10.5 12.3 8.4 15.7 11.6 8.9 8.0 7.0 5.7 2.5 2.6 3.1 3.1 3.1 3.7 4.2 4.0 3.4 3.4 3.2 2.1 2.0 1.1 0.9 1.0 1.0 0.9 1.1 0.5 0.5 0.4 0.6 0.7 0.7 0.8 0.5 0.5 0.4 0.2 0.3 0.2 0.1 0.2 0.1 0.2 0.3 0.3 0.4 0.5
4.7 5.5 11.2 19.5 17.3 12.1 7.8 7.1 8.7 6.3 5.2 4.2 3.4 3.9 4.1 4.3 4.6 4.3 4.1 4.3 3.2 2.1 1.9 1.2 0.9 1.0 0.9 1.1 1.4 1.3 1.3 0.8 0.8 0.7 0.8 0.9 0.5 0.5 0.2 0.3 0.3 0.2 0.2 0.1 0.2 0.3 0.3 0.4 0.5
6.8 9.2 12.8 15.1 13.4 13.8 10.3 9.5 8.4 7.0 5.8 5.3 4.6 4.3 4.7 4.9 5.1 5.5 5.2 4.8 3.7 2.0 2.3 1.8 1.2 1.0 0.9 0.9 1.1 1.4 1.5 1.4 0.9 0.9 1.1 0.8 0.8 0.6 0.3 0.4 0.4 0.2 0.2 0.1 0.2 0.3 0.3 0.5 0.5
4.0 7.2 10.9 17.5 13.9 10.6 10.9 9.9 4.8 4.0 4.1 4.3 4.6 4.7 4.5 4.4 4.5 4.9 4.9 4.6 4.1 3.8 2.7 1.8 2.0 1.7 1.1 0.9 1.0 1.2 1.6 1.4 1.5 1.3 1.2 1.1 0.9 0.8 0.7 0.5 0.5 0.3 0.3 0.4 0.3 0.4 0.4 0.4 0.4